Location: Champs
(48.8539°N, 2.6040°E)
Time: 04:33:13
(UTC+00:00)

Cosmos 2322 - Pass Details

Date: 26 October 2021
Orbit: 841 x 854 km, 71.0° (Epoch: 30 November)

Event Time Altitude Azimuth Distance (km) Brightness Sun altitude
Exits shadow 05:06:05 - 324° (NW) 2,955 6.2 -13.9°
Reaches altitude 10° 05:07:23 10° 320° (NW) 2,485 5.7 -13.7°
Maximum altitude 05:12:42 42° 252° (WSW) 1,201 4.1 -12.8°
Drops below altitude 10° 05:17:58 10° 183° (S) 2,461 6.2 -11.9°
Sets 05:20:30 0° 177° (S) 3,390 7.0 -11.5°
